Location: Northam
(31.6525°S, 116.6655°E)
Time: 23:52:54
(UTC+08:00)

Envisat - Pass Details

Date: 16 May 2021
Orbit: 764 x 766 km, 98.1° (Epoch: 14 June)

Event Time Altitude Azimuth Distance (km) Brightness Sun altitude
Rises 18:00:38 0° 175° (S) 3,263 6.0 -8.1°
Reaches altitude 10° 18:03:01 10° 179° (S) 2,330 5.3 -8.6°
Maximum altitude 18:07:58 51° 254° (WSW) 968 4.0 -9.6°
Drops below altitude 10° 18:12:53 10° 329° (NNW) 2,302 6.2 -10.6°
Sets 18:15:13 0° 334° (NNW) 3,221 6.9 -11.1°
